Weather History for Naples, Italy

Change the Weather History Date:

Thursday, November 22, 2012

  Actual Average Record
Temperature  
Mean Temperature 61 °F -  
Max Temperature 69 °F 58 °F 69 °F (2012)
Min Temperature 53 °F 42 °F 33 °F (2004)
Degree Days  
Heating Degree Days 4    
Growing Degree Days 11 (Base 50)    
Moisture  
Dew Point 54 °F    
Average Humidity 83    
Maximum Humidity 94    
Minimum Humidity 60    
Precipitation  
Precipitation 0.00 in 0.17 in - ()
Sea Level Pressure  
Sea Level Pressure 30.15 in    
Wind  
Wind Speed 3 mph ()    
Max Wind Speed 7 mph    
Max Gust Speed -    
Visibility 4.8 miles    
Events      
Averages and records for this station are not official NWS values.
T = Trace of Precipitation, MM = Missing Value Source: Averaged Metar Reports

Daily Weather History Graph

Daily Weather History Graph

Search for Another Location

Airport:

Trip Planner

Search our weather history database for the weather conditions in past years. The results will help you decide how hot, cold, wet, or windy it might be!

Date:

Astronomy

Nov. 22, 2012 Rise Set
Actual Time 6:58 AM CET 4:39 PM CET
Civil Twilight 6:28 AM CET 5:09 PM CET
Nautical Twilight 5:54 AM CET 5:42 PM CET
Astronomical Twilight 5:22 AM CET 6:15 PM CET
Moon 1:18 PM CET (11/22) 12:58 AM CET (11/22)
Length of Visible Light 10h 40m
Length of Day
9h 40m
Waxing Gibbous, 69% of the Moon is Illuminated
Nov 22
Waxing Gibbous
Nov 28
Full
Dec 6
Last Quarter
Dec 13
New
Dec 20
First Quarter

Hourly Weather History & Observations

Time (CET) Temp. Dew Point Humidity Pressure Visibility Wind Dir Wind Speed Gust Speed Precip Events Conditions
12:20 AM 55.4 °F 51.8 °F 88% 30.09 in - NNW 2.3 mph - N/A   Clear
12:50 AM 53.6 °F 50.0 °F 88% 30.09 in - NW 3.5 mph - N/A   Clear
1:20 AM 55.4 °F 51.8 °F 88% 30.09 in - NW 4.6 mph - N/A   Clear
1:50 AM 55.4 °F 51.8 °F 88% 30.09 in - NNW 4.6 mph - N/A   Clear
2:20 AM 55.4 °F 51.8 °F 88% 30.12 in - NW 4.6 mph - N/A   Clear
2:50 AM 55.4 °F 51.8 °F 88% 30.12 in - NW 5.8 mph - N/A   Clear
3:20 AM 55.4 °F 51.8 °F 88% 30.12 in - NW 4.6 mph - N/A   Clear
3:50 AM 53.6 °F 50.0 °F 88% 30.12 in - NW 3.5 mph - N/A   Clear
4:20 AM 53.6 °F 51.8 °F 94% 30.12 in - NW 2.3 mph - N/A   Clear
4:50 AM 55.4 °F 51.8 °F 88% 30.12 in - NNW 2.3 mph - N/A   Clear
5:20 AM 55.4 °F 51.8 °F 88% 30.12 in - NW 2.3 mph - N/A   Clear
5:50 AM 53.6 °F 51.8 °F 94% 30.12 in - NW 3.5 mph - N/A   Clear
6:20 AM 53.6 °F 51.8 °F 94% 30.12 in - NW 3.5 mph - N/A   Clear
6:50 AM 53.6 °F 51.8 °F 94% 30.15 in - NNW 1.2 mph - N/A   Clear
7:20 AM 53.6 °F 51.8 °F 94% 30.15 in - NW 3.5 mph - N/A   Clear
7:50 AM 57.2 °F 53.6 °F 88% 30.15 in - NNW 3.5 mph - N/A   Clear
8:20 AM 57.2 °F 53.6 °F 88% 30.15 in - NNW 3.5 mph - N/A   Clear
8:50 AM 59.0 °F 53.6 °F 82% 30.15 in - Variable 2.3 mph - N/A   Clear
9:20 AM 60.8 °F 55.4 °F 82% 30.15 in - Variable 2.3 mph - N/A   Clear
9:50 AM 62.6 °F 55.4 °F 77% 30.18 in - NNE 3.5 mph - N/A   Clear
10:20 AM 64.4 °F 55.4 °F 73% 30.18 in - NNE 3.5 mph - N/A   Clear
10:50 AM 66.2 °F 55.4 °F 68% 30.18 in - Variable 2.3 mph - N/A   Clear
11:20 AM 66.2 °F 55.4 °F 68% 30.15 in - Variable 1.2 mph - N/A   Clear
11:50 AM 68.0 °F 55.4 °F 64% 30.15 in - Variable 2.3 mph - N/A   Clear
12:20 PM 69.8 °F 55.4 °F 60% 30.15 in - Variable 2.3 mph - N/A   Clear
12:50 PM 69.8 °F 55.4 °F 60% 30.15 in 6.2 mi SSW 6.9 mph - N/A   Partly Cloudy
1:20 PM 68.0 °F 55.4 °F 64% 30.15 in 6.2 mi South 5.8 mph - N/A   Scattered Clouds
1:50 PM 69.8 °F 55.4 °F 60% 30.12 in 6.2 mi South 5.8 mph - N/A   Scattered Clouds
2:20 PM 66.2 °F 55.4 °F 68% 30.12 in 6.2 mi South 5.8 mph - N/A   Scattered Clouds
2:50 PM 68.0 °F 55.4 °F 64% 30.15 in 6.2 mi South 4.6 mph - N/A   Scattered Clouds
3:20 PM 66.2 °F 55.4 °F 68% 30.15 in 6.2 mi South 4.6 mph - N/A   Scattered Clouds
3:50 PM 66.2 °F 59.0 °F 78% 30.15 in 6.2 mi South 3.5 mph - N/A   Scattered Clouds
4:20 PM 66.2 °F 59.0 °F 78% 30.15 in - South 2.3 mph - N/A   Clear
4:50 PM 64.4 °F 59.0 °F 83% 30.15 in - Variable 1.2 mph - N/A   Clear
5:50 PM 60.8 °F 57.2 °F 88% 30.15 in - Variable 2.3 mph - N/A   Clear
6:20 PM 60.8 °F 57.2 °F 88% 30.15 in - Calm Calm - N/A   Clear
6:50 PM 60.8 °F 57.2 °F 88% 30.15 in - ENE 3.5 mph - N/A   Clear
7:20 PM 59.0 °F 57.2 °F 94% 30.18 in 5.0 mi Variable 2.3 mph - N/A   Unknown
7:50 PM 60.8 °F 57.2 °F 88% 30.18 in 5.0 mi Variable 2.3 mph - N/A   Unknown
8:20 PM 59.0 °F 55.4 °F 88% 30.18 in 5.0 mi Variable 1.2 mph - N/A   Unknown
8:50 PM 59.0 °F 55.4 °F 88% 30.18 in 4.3 mi Variable 2.3 mph - N/A   Unknown
9:20 PM 57.2 °F 55.4 °F 94% 30.18 in 3.7 mi Variable 1.2 mph - N/A   Unknown
9:50 PM 57.2 °F 55.4 °F 94% 30.18 in 3.1 mi Variable 1.2 mph - N/A   Mist
10:20 PM 57.2 °F 55.4 °F 94% 30.18 in 3.1 mi Variable 1.2 mph - N/A   Mist
10:50 PM 55.4 °F 53.6 °F 94% 30.18 in 3.1 mi Variable 1.2 mph - N/A   Mist
11:20 PM 55.4 °F 53.6 °F 94% 30.18 in 3.1 mi North 1.2 mph - N/A   Mist
11:50 PM 53.6 °F 51.8 °F 94% 30.18 in 3.1 mi North 2.3 mph - N/A   Mist